EW5860 Weather Reports


time (UTC)temp
C
wind
direction
speed
KPH
gust
KPH
rain 1hr
cm
rain 24hr
cm
rain mn
cm
humidity
%
barometer
mb
20260508173050 17 232 8.0 29.0 0.00 0.00 0.00 40 1012.0
20260508171549 16 261 9.7 38.6 0.00 0.00 0.00 42 1012.3
20260508170048 16 216 8.0 37.0 0.00 0.00 0.00 42 1012.6
20260508164546 16 236 4.8 22.5 0.00 0.00 0.00 42 1012.3
20260508163047 16 101 12.9 35.4 0.00 0.00 0.00 42 1012.4
20260508161542 15 237 6.4 24.1 0.00 0.00 0.00 45 1012.6
20260508160059 15 217 14.5 27.4 0.00 0.00 0.00 42 1013.1
20260508154537 15 265 12.9 27.4 0.00 0.00 0.00 44 1013.5
20260508153043 14 219 11.3 22.5 0.00 0.00 0.00 43 1013.5
20260508151536 14 265 8.0 24.1 0.00 0.00 0.00 45 1013.5
20260508150035 13 220 6.4 16.1 0.00 0.00 0.00 47 1013.9
20260508144529 13 238 4.8 19.3 0.00 0.00 0.00 47 1013.9
20260508143031 12 171 4.8 11.3 0.00 0.00 0.00 52 1013.9
20260508141536 12 211 6.4 19.3 0.00 0.00 0.00 51 1014.0
20260508140025 12 219 4.8 16.1 0.00 0.00 0.00 51 1014.1
20260508134530 12 241 4.8 19.3 0.00 0.00 0.00 55 1014.2
20260508133024 12 218 3.2 8.0 0.00 0.00 0.00 58 1014.2
20260508131524 12 325 1.6 4.8 0.00 0.00 0.00 55 1014.3
20260508130023 11 325 0.0 3.2 0.00 0.00 0.00 57 1014.2
20260508124520 11 341 1.6 6.4 0.00 0.00 0.00 59 1014.2
20260508123020 10 218 0.0 3.2 0.00 0.00 0.00 64 1014.2
20260508121547 10 266 0.0 4.8 0.00 0.00 0.00 72 1014.2
20260508120019 8 263 0.0 3.2 0.00 0.00 0.00 81 1014.2
20260508114518 7 237 0.0 1.6 0.00 0.00 0.00 91 1014.1
20260508113017 6 237 0.0 0.0 0.00 0.00 0.00 95 1013.9
20260508111516 5 237 0.0 1.6 0.00 0.00 0.00 95 1014.0
20260508110014 4 283 0.0 0.0 0.00 0.00 0.00 94 1013.9
20260508104513 4 283 0.0 0.0 0.00 0.00 0.00 94 1013.6
20260508103015 3 283 0.0 0.0 0.00 0.00 0.00 93 1013.6
20260508101511 3 283 0.0 0.0 0.00 0.00 0.00 92 1013.7
20260508100009 4 283 0.0 0.0 0.00 0.00 0.00 92 1013.4
20260508094505 4 283 0.0 0.0 0.00 0.00 0.00 91 1013.2
20260508093004 5 283 0.0 0.0 0.00 0.00 0.00 90 1013.2
20260508091605 5 283 0.0 1.6 0.00 0.00 0.00 90 1013.2
20260508090100 5 327 0.0 0.0 0.00 0.00 0.00 89 1013.1
20260508084556 5 327 0.0 0.0 0.00 0.00 0.00 87 1013.0
20260508083131 6 327 0.0 0.0 0.00 0.00 0.00 85 1012.8
20260508081554 7 327 0.0 0.0 0.00 0.00 0.00 83 1012.6
20260508080053 7 327 0.0 1.6 0.00 0.00 0.00 80 1012.5
20260508074542 8 343 0.0 4.8 0.00 0.03 0.00 78 1012.3
20260508073043 8 20 0.0 4.8 0.00 0.03 0.00 77 1012.2
20260508071541 8 242 0.0 3.2 0.00 0.03 0.00 76 1012.1
20260508070035 9 325 1.6 9.7 0.00 0.03 0.00 74 1011.9
20260508064545 10 277 3.2 11.3 0.00 0.13 0.00 72 1011.8
20260508063033 10 306 3.2 9.7 0.00 0.13 0.00 70 1011.6
20260508061525 10 329 3.2 12.9 0.00 0.13 0.00 68 1011.5
20260508060023 11 251 0.0 11.3 0.00 0.13 0.00 66 1011.3
20260508054520 11 44 1.6 19.3 0.00 0.48 0.00 63 1011.1
20260508053015 11 278 0.0 3.2 0.00 0.48 0.00 65 1010.7
20260508051510 12 251 1.6 6.4 0.00 0.48 0.00 61 1010.2
20260508050007 12 127 0.0 8.0 0.00 0.48 0.00 61 1010.0
20260508044506 12 230 0.0 8.0 0.00 1.19 0.00 63 1009.7
20260508043005 12 44 3.2 17.7 0.00 1.19 0.00 65 1009.8
20260508041501 12 169 3.2 14.5 0.00 1.19 0.00 64 1009.4
20260508040112 12 188 4.8 12.9 0.00 1.19 0.00 62 1009.2
20260508034558 12 205 6.4 16.1 0.00 1.19 1.19 60 1009.2
20260508033102 12 227 6.4 14.5 0.00 1.19 1.19 59 1009.2
20260508031600 12 218 4.8 11.3 0.00 1.19 1.19 60 1009.2
20260508030116 11 209 1.6 4.8 0.00 1.19 1.19 68 1009.1
20260508024604 10 279 0.0 0.0 0.00 1.19 1.19 72 1009.1
20260508023055 9 279 0.0 0.0 0.00 1.19 1.19 73 1009.2
20260508021554 8 279 0.0 0.0 0.00 1.19 1.19 76 1009.2
20260508020054 8 279 0.0 0.0 0.00 1.19 1.19 75 1009.2
20260508014554 8 279 0.0 0.0 0.00 1.19 1.19 76 1008.9
20260508013052 8 280 0.0 0.0 0.00 1.19 1.19 77 1008.9
20260508011602 9 279 0.0 0.0 0.00 1.19 1.19 75 1008.6
20260508010104 10 279 0.0 0.0 0.00 1.19 1.19 74 1008.5
20260508004559 10 280 0.0 0.0 0.00 1.19 1.19 72 1008.5
20260508003106 10 279 0.0 0.0 0.00 1.19 1.19 71 1008.5
20260508001550 11 279 0.0 0.0 0.00 1.19 1.19 66 1008.3
20260508000049 12 279 0.0 0.0 0.00 1.19 1.19 62 1008.2
20260507234549 13 279 0.0 0.0 0.00 1.19 1.19 55 1008.1
20260507233048 16 280 0.0 1.6 0.00 1.19 1.19 49 1007.9
20260507231604 16 280 0.0 0.0 0.00 1.19 1.19 51 1008.0
20260507230051 17 279 0.0 1.6 0.00 1.19 1.19 43 1008.0
20260507224557 17 276 0.0 1.6 0.00 1.19 1.19 37 1007.9
20260507223046 18 276 0.0 3.2 0.00 1.19 1.19 36 1007.9
20260507221545 17 35 0.0 4.8 0.00 1.19 1.19 37 1007.9
20260507220044 18 37 1.6 14.5 0.00 1.19 1.19 37 1008.0
20260507214544 18 209 0.0 3.2 0.00 1.19 1.19 35 1008.0
20260507213054 18 143 0.0 3.2 0.00 1.19 1.19 36 1008.1
20260507211543 17 17 3.2 12.9 0.00 1.19 1.19 36 1008.2
20260507210046 17 279 1.6 11.3 0.00 1.19 1.19 36 1008.0
20260507204553 17 244 0.0 11.3 0.00 1.19 1.19 36 1007.9
20260507203041 17 260 1.6 8.0 0.00 1.19 1.19 37 1007.9
20260507201541 17 61 1.6 19.3 0.00 1.19 1.19 36 1008.0
20260507200040 17 278 4.8 16.1 0.00 1.19 1.19 34 1008.1
20260507194538 17 16 6.4 17.7 0.00 1.19 1.19 34 1008.2
20260507193036 18 254 0.0 9.7 0.00 1.19 1.19 36 1008.5
20260507191532 17 16 1.6 16.1 0.00 1.19 1.19 38 1008.5
20260507190037 16 260 6.4 16.1 0.00 1.19 1.19 35 1008.7
20260507184537 17 266 8.0 17.7 0.00 1.24 1.19 35 1008.8
20260507183029 17 37 1.6 6.4 0.00 1.24 1.19 40 1008.9
20260507181525 17 24 1.6 6.4 0.00 1.24 1.19 39 1009.1
20260507180024 17 73 1.6 12.9 0.00 1.24 1.19 41 1009.2
20260507174529 17 30 1.6 9.7 0.00 1.24 1.19 39 1009.3